Canberra, Australia

12:26 PM AEDT on March 25, 2017 (GMT +1100)
Canberra

Weather History for YSCB - August, 2013

Change the Weather History Date:

Tuesday, August 20, 2013

  Actual Average Record
Temperature  
Mean Temperature 41 °F -  
Max Temperature 50 °F 59 °F - ()
Min Temperature 32 °F 37 °F - ()
Degree Days  
Heating Degree Days 24    
Moisture  
Dew Point 29 °F    
Average Humidity 63    
Maximum Humidity 81    
Minimum Humidity 33    
Precipitation  
Precipitation 0.00 in 0.07 in - ()
Sea Level Pressure  
Sea Level Pressure 29.92 in    
Wind  
Wind Speed 11 mph ()    
Max Wind Speed 21 mph    
Max Gust Speed -    
Visibility 6.2 miles    
Events      
T = Trace of Precipitation, MM = Missing Value Source: Averaged Metar Reports

Daily Weather History Graph

Daily Weather History Graph

Search for Another Location

Airport or City:

Trip Planner

Search our weather history database for the weather conditions in past years. The results will help you decide how hot, cold, wet, or windy it might be!

Date:

Astronomy

Aug. 20, 2013 Rise Set
Actual Time 6:38 AM AEST 5:35 PM AEST
Civil Twilight 6:12 AM AEST 6:01 PM AEST
Nautical Twilight 5:42 AM AEST 6:30 PM AEST
Astronomical Twilight 5:13 AM AEST 7:00 PM AEST
Moon 4:46 PM AEST (8/20) 5:29 AM AEST (8/20)
Length of Visible Light 11h 48m
Length of Day
10h 56m
Waxing Gibbous, 99% of the Moon is Illuminated
Aug 20
Waxing Gibbous
Aug 21
Full
Aug 28
Last Quarter
Sep 5
New
Sep 13
First Quarter

Hourly Weather History & Observations

Time (AEST) Temp. Windchill Dew Point Humidity Pressure Visibility Wind Dir Wind Speed Gust Speed Precip Events Conditions
12:00 AM 36 °F - 31 °F 76% 29.89 in - North 9.2 mph - -   Overcast
12:00 AM 37.4 °F 30.8 °F 32.0 °F 81% 29.86 in 6.2 mi North 9.2 mph - N/A   Scattered Clouds
12:30 AM 37.4 °F 29.8 °F 30.2 °F 75% 29.86 in 6.2 mi WNW 11.5 mph - N/A   Scattered Clouds
1:00 AM 35 °F - 29 °F 71% 29.88 in - NNW 10.4 mph - -  
1:00 AM 35.6 °F 28.0 °F 28.4 °F 75% 29.86 in 6.2 mi NNW 10.4 mph - N/A   Unknown
1:30 AM 37.4 °F 30.8 °F 30.2 °F 75% 29.86 in 6.2 mi NW 9.2 mph - N/A   Unknown
2:00 AM 35.6 °F 28.0 °F 30.2 °F 81% 29.86 in 6.2 mi NNW 10.4 mph - N/A   Unknown
2:30 AM 35.6 °F 28.6 °F 30.2 °F 81% 29.83 in 6.2 mi NW 9.2 mph - N/A   Unknown
3:00 AM 37.4 °F 30.3 °F 28.4 °F 70% 29.83 in 6.2 mi NNW 10.4 mph - N/A   Unknown
3:30 AM 35.6 °F 27.1 °F 28.4 °F 75% 29.83 in 6.2 mi NNW 12.7 mph - N/A   Unknown
4:00 AM 35.6 °F 29.2 °F 26.6 °F 70% 29.86 in 6.2 mi NW 8.1 mph - N/A   Unknown
4:30 AM 35.6 °F 27.1 °F 28.4 °F 75% 29.86 in 6.2 mi NNE 12.7 mph - N/A   Scattered Clouds
5:00 AM 33.8 °F 25.3 °F 28.4 °F 81% 29.86 in 6.2 mi North 11.5 mph - N/A   Scattered Clouds
5:30 AM 33.8 °F 27.0 °F 28.4 °F 81% 29.86 in 6.2 mi North 8.1 mph - N/A   Partly Cloudy
6:00 AM 33.8 °F 27.0 °F 28.4 °F 81% 29.86 in 6.2 mi NNE 8.1 mph - N/A   Partly Cloudy
6:30 AM 33.8 °F 27.7 °F 26.6 °F 75% 29.89 in 6.2 mi North 6.9 mph - N/A   Scattered Clouds
7:00 AM 36 °F - 28 °F 64% 29.93 in - North 8.1 mph - -  
7:00 AM 35.6 °F 29.2 °F 28.4 °F 75% 29.89 in 6.2 mi North 8.1 mph - N/A   Scattered Clouds
7:30 AM 37.4 °F 33.8 °F 28.4 °F 70% 29.92 in 6.2 mi North 4.6 mph - N/A   Scattered Clouds
8:00 AM 41.0 °F 34.7 °F 28.4 °F 61% 29.92 in 6.2 mi West 10.4 mph - N/A   Scattered Clouds
8:30 AM 42.8 °F 36.2 °F 30.2 °F 61% 29.92 in 6.2 mi West 12.7 mph - N/A   Scattered Clouds
9:00 AM 42.8 °F 36.2 °F 28.4 °F 57% 29.95 in 6.2 mi WNW 12.7 mph - N/A   Scattered Clouds
9:30 AM 44.6 °F 37.2 °F 30.2 °F 57% 29.92 in 6.2 mi WNW 17.3 mph - N/A   Scattered Clouds
10:00 AM 45 °F - 29 °F 42% 29.96 in - West 18.4 mph - -  
10:00 AM 44.6 °F 36.9 °F 28.4 °F 53% 29.92 in 6.2 mi West 18.4 mph - N/A   Scattered Clouds
10:30 AM 46.4 °F 39.0 °F 28.4 °F 50% 29.92 in 6.2 mi WNW 19.6 mph - N/A   Scattered Clouds
11:00 AM 46.4 °F 39.0 °F 28.4 °F 50% 29.92 in 6.2 mi WNW 19.6 mph - N/A   Scattered Clouds
11:30 AM 48.2 °F - 28.4 °F 46% 29.92 in 6.2 mi WNW 16.1 mph - N/A   Scattered Clouds
12:00 PM 48 °F - 28 °F 33% 29.94 in - WNW 20.7 mph - -  
12:00 PM 48.2 °F - 28.4 °F 46% 29.92 in 6.2 mi WNW 20.7 mph - N/A   Scattered Clouds
12:30 PM 48.2 °F - 28.4 °F 46% 29.89 in 6.2 mi WNW 20.7 mph - N/A   Scattered Clouds
1:00 PM 49 °F - 29 °F 33% 29.92 in - WNW 18.4 mph - -  
1:00 PM 48.2 °F - 28.4 °F 46% 29.89 in 6.2 mi WNW 18.4 mph - N/A   Partly Cloudy
1:30 PM 48.2 °F - 28.4 °F 46% 29.89 in 6.2 mi West 18.4 mph - N/A   Partly Cloudy
2:00 PM 50.0 °F - 28.4 °F 43% 29.89 in 6.2 mi WNW 20.7 mph - N/A   Partly Cloudy
2:30 PM 46.4 °F 39.2 °F 28.4 °F 50% 29.89 in 6.2 mi WNW 18.4 mph - N/A   Scattered Clouds
3:00 PM 45 °F - 29 °F 41% 29.94 in - WNW 18.4 mph - -   Overcast
3:00 PM 44.6 °F 36.9 °F 28.4 °F 53% 29.89 in 6.2 mi WNW 18.4 mph - N/A   Mostly Cloudy
3:30 PM 44.6 °F 36.9 °F 28.4 °F 53% 29.92 in 6.2 mi WNW 18.4 mph - N/A   Mostly Cloudy
4:00 PM 45 °F - 28 °F 39% 29.95 in - WNW 18.4 mph - -  
4:00 PM 44.6 °F 36.9 °F 28.4 °F 53% 29.92 in 6.2 mi WNW 18.4 mph - N/A   Mostly Cloudy
4:30 PM 44.6 °F 37.4 °F 30.2 °F 57% 29.92 in 6.2 mi WNW 16.1 mph - N/A   Scattered Clouds
5:00 PM 44.6 °F 37.8 °F 28.4 °F 53% 29.92 in 6.2 mi WNW 15.0 mph - N/A   Scattered Clouds
5:30 PM 42.8 °F 36.2 °F 28.4 °F 57% 29.95 in 6.2 mi WNW 12.7 mph - N/A   Partly Cloudy
6:00 PM 41 °F - 29 °F 50% 29.99 in - West 12.7 mph - -   Overcast
6:00 PM 41.0 °F 33.9 °F 28.4 °F 61% 29.95 in 6.2 mi West 12.7 mph - N/A   Partly Cloudy
6:30 PM 39.2 °F 33.0 °F 28.4 °F 65% 29.95 in 6.2 mi WNW 9.2 mph - N/A   Partly Cloudy
7:00 PM 38 °F - 29 °F 60% 30.00 in - NW 10.4 mph - -  
7:00 PM 37.4 °F 30.3 °F 28.4 °F 70% 29.95 in 6.2 mi NW 10.4 mph - N/A   Partly Cloudy
7:30 PM 37.4 °F 29.8 °F 28.4 °F 70% 29.98 in 6.2 mi NW 11.5 mph - N/A   Partly Cloudy
8:00 PM 37.4 °F 29.8 °F 30.2 °F 75% 29.98 in 6.2 mi NNW 11.5 mph - N/A   Partly Cloudy
8:30 PM 37.4 °F 30.3 °F 30.2 °F 75% 29.98 in 6.2 mi North 10.4 mph - N/A   Partly Cloudy
9:00 PM 36 °F - 30 °F 70% 30.02 in - NNE 9.2 mph - -   Overcast
9:00 PM 35.6 °F 28.6 °F 30.2 °F 81% 29.98 in 6.2 mi NNE 9.2 mph - N/A   Scattered Clouds
9:30 PM 35.6 °F 28.6 °F 30.2 °F 81% 29.98 in 6.2 mi North 9.2 mph - N/A   Scattered Clouds
10:00 PM 37 °F - 31 °F 70% 30.02 in - North 12.7 mph - -  
10:00 PM 37.4 °F 29.3 °F 30.2 °F 75% 29.98 in 6.2 mi North 12.7 mph - N/A   Scattered Clouds
10:30 PM 37.4 °F 29.3 °F 32.0 °F 81% 29.98 in 6.2 mi NNW 12.7 mph - N/A   Scattered Clouds
11:00 PM 39.2 °F 32.0 °F 32.0 °F 75% 29.98 in 6.2 mi NNW 11.5 mph - N/A   Scattered Clouds
11:30 PM 39.2 °F 31.6 °F 32.0 °F 75% 29.98 in 6.2 mi North 12.7 mph - N/A   Overcast